Vorticity
10 12 13 13 14 14 14 13 12 12 12 12 11 11 10 9 8 8 8 8 8 7 7 6 5 5 4 4 4 4 3 4 5 5 5 5 3 2 2 2 2 3 4 5 8 16 23 17 9 6 7 7 6 8 8 9 10 9 10 10 11 11 9 9 10 7 -4 -5 6 11 7 4 6 6 4 5 4 3 5 7 7 6 4 3 4 3 4 4
6 7 8 10 11 12 14 14 15 14 14 14 13 12 11 10 10 9 9 9 9 9 8 8 7 7 7 6 5 4 3 3 4 4 6 6 5 3 2 2 2 3 2 4 4 7 16 22 18 8 6 8 6 8 8 9 11 9 10 11 12 10 8 5 1 -0 -7 -5 10 16 8 4 5 6 6 5 4 5 5 6 6 3 3 7 6 4 3 4
5 6 6 6 7 8 9 11 12 14 15 15 15 15 14 13 13 12 12 11 11 11 11 10 9 9 8 8 8 7 5 4 3 3 5 5 6 5 4 3 2 2 2 3 3 4 7 15 22 17 8 7 7 8 8 9 11 10 9 10 12 9 6 5 2 2 -1 -0 14 17 7 5 5 6 8 6 4 4 4 4 3 2 5 7 6 6 5 4
4 4 4 5 5 5 6 7 7 9 10 12 13 14 15 15 16 15 15 15 15 15 15 14 13 13 12 10 10 9 8 8 5 3 3 5 6 6 5 5 3 2 2 2 2 4 5 8 18 21 11 6 7 7 8 9 10 10 10 10 12 9 5 8 10 8 5 5 13 12 6 7 5 4 6 5 7 6 4 3 3 4 6 6 6 7 3 4
8 7 5 4 3 3 4 5 5 6 6 7 8 9 11 12 13 14 14 14 14 13 12 12 13 13 13 13 13 12 10 10 10 5 3 4 3 4 5 5 5 3 2 3 2 2 3 6 12 20 16 7 7 6 8 10 9 10 10 12 10 8 8 8 8 7 8 9 7 5 4 6 5 6 5 3 6 7 6 4 5 5 4 4 7 7 3 5
12 11 11 9 7 5 4 3 3 4 5 5 6 6 7 8 9 10 10 10 9 9 8 8 9 9 10 11 12 13 11 10 12 9 7 8 5 4 4 5 7 5 4 3 3 2 3 5 8 17 20 10 6 5 7 9 9 8 9 13 12 12 13 9 8 8 9 9 7 5 4 4 5 7 5 -0 -3 -1 3 3 3 7 8 6 5 6 5 3
13 12 12 12 11 11 9 7 5 3 3 3 4 5 5 6 6 7 7 7 6 5 5 6 6 6 7 7 8 10 11 11 13 11 9 12 10 7 4 4 7 7 7 4 4 4 3 4 4 13 20 13 7 4 6 9 9 9 9 11 11 13 11 7 9 10 8 7 7 6 4 4 5 6 7 5 1 0 4 4 2 4 5 4 5 5 3 2
13 13 13 13 12 12 11 11 10 9 7 4 4 3 4 5 5 6 6 5 5 5 4 4 5 5 5 6 6 7 9 10 11 11 9 9 10 9 6 4 5 8 9 7 6 5 2 2 3 9 17 15 8 4 6 8 8 9 9 11 12 12 10 8 10 10 8 8 8 6 5 5 5 6 7 6 7 3 4 6 3 3 1 -1 5 5 3 4
10 10 11 12 13 13 12 12 11 11 11 9 8 5 4 4 5 5 5 5 4 4 4 4 4 3 4 5 6 6 8 9 8 10 11 10 10 9 8 5 4 7 9 8 5 4 2 4 5 8 16 16 9 4 5 7 8 8 9 10 12 12 10 9 9 9 8 7 7 4 4 6 5 6 7 6 6 3 4 5 3 8 10 5 5 4 4 4
9 9 8 8 9 10 11 12 12 12 11 11 11 10 9 6 5 4 5 5 4 4 3 4 4 3 3 3 4 5 7 8 6 9 10 10 11 11 9 7 5 5 7 9 6 6 8 8 7 7 11 14 11 6 3 5 8 7 8 9 11 12 11 10 9 9 8 7 6 4 6 8 4 6 9 7 5 3 5 7 7 11 12 9 8 3 4 5
8 9 9 9 8 8 9 9 10 12 12 12 12 12 12 11 10 7 6 5 5 6 4 4 4 3 3 1 1 4 7 8 6 8 9 8 10 11 10 9 7 5 7 8 8 8 7 6 4 3 6 11 15 10 3 5 8 8 9 10 10 11 10 10 9 7 6 6 5 3 6 7 5 7 8 5 5 3 2 6 8 5 1 3 8 4 3 5
8 9 10 10 10 11 11 10 10 11 12 12 13 13 13 13 13 12 10 9 7 7 6 6 4 4 4 1 2 4 6 8 7 7 8 8 9 10 11 11 9 8 6 7 9 8 6 4 2 3 7 11 15 11 5 4 7 9 9 10 11 11 12 11 9 9 7 8 6 3 7 9 7 8 7 5 6 4 0 3 7 8 6 2 5 6 4 5
11 11 12 13 13 13 13 13 13 13 13 13 13 13 14 14 15 15 13 11 10 9 9 8 6 6 4 2 5 6 5 7 7 7 8 8 9 10 11 11 10 8 7 8 8 5 4 2 2 4 5 10 14 11 7 4 4 9 8 9 10 9 11 9 9 8 4 10 8 2 9 10 5 5 6 5 5 7 4 3 6 8 8 4 5 8 6 6
13 15 16 17 17 16 15 15 15 15 16 16 16 16 15 14 14 16 16 15 13 11 10 10 9 8 6 5 6 4 4 6 6 7 9 8 9 9 10 12 11 9 9 8 7 5 4 1 4 5 3 11 14 9 9 4 5 10 8 9 9 9 11 8 9 8 5 11 8 2 12 19 16 6 2 5 7 14 12 4 5 4 3 4 6 8 6 6
16 17 18 18 18 17 16 15 15 15 15 15 15 16 17 16 15 13 14 17 17 14 11 10 10 9 8 8 5 4 4 5 9 10 9 7 8 8 9 11 12 10 9 8 7 5 4 4 8 5 3 11 9 9 13 4 4 10 7 9 8 7 12 10 7 6 7 9 6 8 13 20 25 10 -1 1 -0 6 9 3 4 5 5 6 5 5 6 6
16 17 17 18 17 16 15 14 12 10 10 9 9 11 13 16 18 16 13 13 15 18 16 12 11 9 9 7 5 5 4 6 12 9 7 8 7 8 8 8 10 11 10 9 6 4 6 9 9 6 7 9 6 13 15 4 6 9 7 10 8 7 17 24 14 3 9 9 6 11 6 5 14 11 11 10 -4 -5 4 5 4 4 5 6 6 5 4 6
15 16 16 16 16 16 14 13 11 11 10 9 8 8 9 11 16 19 18 14 12 14 17 17 14 11 10 9 8 8 7 10 11 7 8 10 8 8 7 7 10 12 10 9 7 7 10 8 5 4 6 6 7 16 14 4 7 9 8 8 8 8 13 23 16 2 7 8 6 10 1 -2 6 8 14 16 8 5 6 7 6 6 7 8 10 8 4 8
14 13 13 14 14 14 13 11 10 10 11 12 12 10 10 9 10 14 19 20 16 12 14 17 18 16 13 11 10 10 9 9 10 9 11 10 8 8 8 10 11 11 10 9 8 9 8 6 6 6 4 3 5 14 14 7 5 7 10 9 10 9 3 15 21 6 6 7 6 7 -3 -6 2 8 14 14 13 11 5 4 6 8 8 8 11 9 6 9
12 11 11 11 11 11 9 8 6 6 8 11 13 12 11 10 9 11 15 19 21 18 14 14 17 17 15 13 11 11 9 9 11 12 12 10 9 9 10 10 9 10 10 8 8 8 7 8 6 2 1 2 4 13 14 8 7 7 8 9 14 12 -4 6 21 9 4 6 10 14 5 -4 -8 -6 7 19 23 16 9 8 8 9 8 6 6 8 6 5
11 10 9 8 9 8 7 6 6 6 7 9 13 14 12 11 11 11 14 18 20 20 18 13 13 15 16 15 13 11 11 13 14 13 12 11 10 9 10 9 8 9 8 9 10 9 9 7 4 3 5 7 7 12 12 8 9 13 13 6 8 12 1 6 22 17 8 6 14 15 3 3 4 -10 -14 2 16 15 12 12 12 12 9 3 -0 4 7 3
11 10 9 8 7 6 7 7 6 7 9 10 13 13 12 11 11 11 15 20 18 18 19 17 14 15 13 12 13 13 13 14 13 11 12 11 10 9 8 8 8 8 9 11 9 8 7 3 4 9 9 10 10 10 9 7 3 7 13 6 3 11 6 3 11 13 6 5 20 18 -3 0 13 7 -4 -5 -1 -0 3 8 11 13 10 5 1 2 6 5
11 11 10 8 7 7 7 7 8 9 11 14 15 15 14 13 15 14 14 18 19 18 19 18 16 15 14 13 14 16 14 12 10 11 12 11 10 8 8 9 9 10 12 11 7 5 4 4 7 10 8 8 9 8 7 7 3 0 6 8 8 10 2 -5 -4 2 9 18 25 17 9 14 14 13 14 7 -1 -3 3 7 4 6 8 6 6 6 6 6
12 12 11 11 9 8 9 10 12 13 15 18 17 17 17 17 19 19 17 17 17 18 18 18 18 16 16 15 14 15 14 14 13 12 12 12 12 10 9 10 9 10 11 9 7 6 6 8 9 8 8 7 6 9 8 6 6 4 7 9 10 14 11 7 4 3 6 12 6 -13 -8 11 12 11 13 6 4 6 9 11 3 -2 1 4 6 7 7 6
13 13 13 13 12 12 13 13 15 17 20 21 19 19 19 18 18 19 21 18 18 18 17 19 19 16 16 16 15 14 13 13 14 13 12 12 13 11 10 10 10 10 9 9 9 9 10 11 11 7 6 6 7 10 8 5 5 7 11 10 14 23 18 8 5 10 10 3 -4 -4 2 3 -4 -3 2 6 11 12 8 9 8 2 -2 2 6 5 6 5
13 14 15 16 16 16 15 16 21 22 22 21 21 20 18 18 17 17 20 20 20 20 19 19 17 18 19 15 14 15 15 14 13 13 12 12 13 13 12 10 9 8 8 10 9 9 9 8 9 8 6 7 8 10 7 7 8 8 9 4 6 15 14 12 9 5 8 2 -8 -2 9 8 -0 -7 -5 8 16 14 9 6 7 8 4 3 6 6 6 4
14 16 18 18 18 16 16 23 25 22 22 20 19 19 18 18 17 17 19 22 25 24 24 24 20 20 21 18 17 16 16 15 14 13 12 11 11 13 14 10 9 9 9 10 9 10 8 8 8 6 9 8 7 10 6 7 9 9 12 3 -6 2 12 31 38 18 5 11 10 2 -1 8 13 1 -5 7 18 15 11 8 5 5 5 3 5 7 6 5
16 18 20 21 19 18 21 24 20 17 20 19 18 17 18 19 18 19 20 21 24 24 27 27 22 20 20 20 22 19 15 16 17 14 12 14 12 10 12 12 11 9 9 8 6 8 7 7 8 5 9 8 4 10 8 7 8 10 21 4 -17 -1 9 11 29 32 20 16 20 15 5 9 18 10 -4 -0 13 15 10 6 5 4 3 3 5 6 6 7
18 21 22 22 19 19 21 19 15 15 15 14 16 16 18 20 20 22 22 19 20 22 26 27 26 28 25 19 17 19 22 22 20 15 16 20 16 12 8 10 14 8 14 17 5 7 10 6 8 3 6 10 7 11 13 11 0 6 37 23 -18 -7 10 3 6 19 23 17 15 19 11 5 12 15 4 -3 7 17 15 8 4 5 5 5 6 5 7 8
22 23 24 22 18 18 17 13 13 12 10 12 15 16 18 19 19 20 20 19 19 17 16 21 26 28 27 22 16 18 21 20 21 18 21 21 13 14 9 8 17 3 6 25 12 10 16 7 12 13 2 8 13 8 12 16 -5 -8 39 44 -5 -17 2 15 16 11 13 12 10 22 21 5 4 13 10 3 5 13 16 13 9 7 6 5 6 6 7 7
24 25 25 22 18 16 14 11 9 6 8 13 12 11 13 14 17 17 13 16 19 14 10 14 22 22 23 26 21 20 18 15 21 17 19 23 13 18 14 3 17 6 -3 20 18 17 28 8 10 23 4 2 17 9 9 20 -2 -13 30 52 14 -18 -16 7 22 16 10 7 1 8 20 14 5 9 12 7 6 13 14 9 7 6 5 5 6 6 5 4
26 25 24 20 15 11 9 7 4 3 9 12 5 4 9 9 11 10 9 15 13 14 17 13 18 25 26 27 24 23 13 8 23 18 12 22 12 15 16 -4 11 15 -4 9 5 1 25 10 -5 15 9 2 11 7 16 20 -9 -20 12 41 31 -4 -23 -8 15 17 9 14 14 7 15 19 6 1 8 8 5 9 11 7 8 7 5 6 6 6 4 2
27 24 21 18 12 7 6 3 0 3 10 11 2 3 9 7 8 8 11 15 4 8 23 15 15 26 27 26 25 23 9 1 25 24 8 19 13 9 16 -2 3 9 -7 9 7 -12 14 20 2 6 8 12 7 1 30 24 -19 -15 7 16 25 11 -13 -20 -7 7 4 10 22 15 14 20 12 2 3 8 5 1 4 7 10 9 4 7 7 4 3 2
26 23 18 16 10 4 3 1 1 4 9 11 3 2 8 7 10 10 10 17 7 5 19 15 11 22 25 24 23 24 11 1 25 32 11 17 19 12 18 7 4 7 -2 19 23 -6 3 24 22 9 0 19 6 -19 25 28 -29 -15 18 14 11 8 5 -8 -13 3 -0 -1 19 20 15 16 14 7 -2 4 9 2 5 8 8 10 5 7 6 1 3 3
25 20 15 14 10 3 3 3 4 5 8 13 5 -0 8 7 6 7 7 17 11 3 16 18 9 16 22 21 23 26 10 -9 14 35 17 9 16 14 13 6 7 8 -1 18 31 4 -11 3 22 16 -3 16 11 -23 16 40 -6 -13 9 18 13 5 15 8 -7 9 6 2 21 18 10 10 9 12 2 3 11 4 6 10 6 9 7 6 5 0 3 3
21 17 13 13 10 5 6 5 6 8 9 12 4 1 9 6 6 10 10 15 11 5 19 21 8 11 17 18 26 28 7 -11 5 28 23 10 11 15 12 4 7 6 -10 5 32 21 -3 -4 15 25 9 8 8 -10 3 23 17 10 -1 4 14 5 19 19 -9 -2 7 7 15 4 2 7 6 17 12 2 7 5 6 9 5 7 8 4 3 1 2 3
17 15 11 11 10 9 8 7 10 11 11 10 4 5 9 4 5 10 11 12 9 9 17 16 7 11 13 12 22 26 10 2 7 14 25 21 9 14 18 8 6 8 -4 1 25 23 7 2 7 20 22 12 0 -8 1 11 16 21 -0 -7 11 1 10 34 10 -11 0 13 11 -5 -5 4 4 14 14 4 5 4 2 5 4 6 6 3 3 2 2 1
14 13 12 12 11 11 9 11 17 14 12 9 3 6 6 0 3 6 9 13 10 12 19 17 11 14 15 7 16 27 11 5 10 4 18 29 14 11 18 12 8 5 -5 1 25 26 14 16 21 18 14 17 6 -18 -2 23 14 19 15 -6 8 7 -9 24 39 5 -9 4 15 9 -1 2 8 11 10 7 5 2 0 3 5 5 4 3 1 1 1 1
13 12 12 11 9 13 13 17 24 16 10 7 2 5 1 -3 5 7 12 17 12 14 21 20 11 10 13 4 16 34 11 1 16 5 8 30 23 13 14 13 14 7 -12 -12 16 25 9 9 34 44 22 19 26 -11 -14 25 9 5 33 8 -1 17 -9 -7 30 21 -5 -11 2 18 14 7 10 11 9 9 8 5 2 2 4 3 3 3 2 -0 1 1
12 10 10 10 12 16 15 19 25 16 9 5 2 4 1 1 6 10 17 17 14 22 23 19 14 10 13 5 16 37 11 -3 17 9 8 28 22 15 15 10 14 18 2 -11 2 18 6 -13 4 41 31 14 37 10 -27 16 17 -14 25 26 -9 11 14 -8 5 21 18 6 -2 6 11 7 10 14 13 10 10 13 7 1 3 3 2 4 3 1 -0 -0
9 8 9 13 16 16 15 22 26 14 8 7 3 2 5 7 8 13 18 13 19 30 21 15 15 12 14 6 10 26 7 -1 14 6 9 22 13 14 16 7 13 24 18 1 -4 8 14 -1 -5 26 27 0 23 17 -33 -3 20 -25 3 39 -3 -6 22 7 -1 17 22 17 17 12 4 3 10 20 22 10 5 14 14 6 3 2 2 2 -0 -1 -1 1
10 10 9 15 18 16 18 24 24 11 7 9 3 1 7 7 9 16 14 14 26 23 11 19 19 8 10 4 10 21 4 4 13 3 14 21 8 16 16 5 16 26 21 9 -5 -5 9 9 -1 15 31 13 12 19 -5 3 13 -25 -10 34 9 -5 19 9 -0 21 19 9 24 27 7 -4 -4 8 22 19 8 8 13 12 6 1 1 1 0 -0 2 3
15 9 8 16 16 15 19 21 22 14 9 9 2 2 10 7 7 14 12 19 30 9 -1 18 15 8 14 7 14 23 3 3 9 -1 18 25 6 14 16 1 11 25 24 14 0 -2 9 10 -2 0 28 35 19 15 13 8 11 3 -1 9 6 3 14 9 -1 9 14 8 14 20 16 11 1 -2 12 20 13 7 7 9 7 5 4 4 3 2 3 3
12 2 9 20 16 14 19 20 21 13 5 7 2 0 9 6 5 14 14 23 30 7 -4 9 7 10 20 10 12 15 -5 5 21 4 8 23 8 10 18 3 4 19 22 14 4 4 9 8 6 8 21 34 30 25 17 -3 4 30 10 -17 1 14 5 5 5 1 5 6 7 14 22 26 16 5 5 8 9 9 9 5 3 5 6 3 3 4 4 2
5 2 12 21 15 12 17 19 22 16 5 7 4 -2 4 6 5 13 17 23 30 16 1 7 8 3 9 14 11 5 -5 5 25 9 -2 16 14 4 14 12 6 16 18 9 3 2 6 5 2 7 10 12 16 22 21 -1 -5 29 21 -25 -18 14 12 5 7 9 8 -1 -2 6 15 23 23 15 7 4 5 9 11 11 9 6 4 3 4 5 3 2
1 8 17 20 14 13 17 17 17 14 7 5 4 3 10 12 8 11 17 19 22 20 7 8 12 -4 -1 16 5 4 19 12 6 6 1 13 15 2 13 16 7 17 17 5 3 3 10 12 -1 1 11 9 3 4 15 10 -10 9 35 9 -19 -3 18 8 -5 9 21 9 2 1 -3 4 12 13 11 10 12 11 7 8 10 9 7 6 6 4 3 7
5 16 19 17 15 15 14 8 6 8 8 9 11 14 15 14 11 11 19 17 9 18 21 12 10 1 1 14 -2 -3 25 15 -3 6 7 10 10 3 17 18 5 17 17 4 6 7 11 12 -4 -1 19 21 9 3 16 25 3 -7 20 31 9 -3 14 13 -9 -1 16 13 15 17 2 -7 -4 4 10 11 16 19 13 9 10 11 9 6 5 6 9 12
7 10 13 15 16 16 6 -1 4 10 11 13 16 17 12 9 13 11 14 14 5 17 32 19 8 9 9 13 3 -6 8 14 10 6 0 13 19 7 14 17 4 11 17 10 10 9 13 15 -1 -3 16 23 13 7 15 24 16 1 -1 15 18 0 6 19 2 -4 7 3 9 24 22 10 4 5 8 6 8 12 11 11 10 7 6 6 8 12 13 12
4 4 15 19 13 12 7 1 5 8 12 21 16 9 6 4 12 14 10 15 15 19 36 29 10 7 7 6 7 4 4 15 24 10 -7 9 24 11 9 15 7 7 12 10 8 7 11 12 3 0 10 16 8 5 15 19 18 13 -0 5 17 1 0 20 10 -2 10 8 2 13 21 18 12 8 8 7 9 8 6 9 10 9 10 11 13 13 12 13
6 6 17 15 5 12 15 5 7 10 16 21 5 -2 6 6 15 24 12 12 24 25 34 37 16 3 7 6 0 5 11 11 18 19 5 5 17 13 9 13 8 6 12 13 7 8 12 7 2 3 8 14 10 6 12 13 16 23 15 9 16 7 5 21 13 -3 3 9 10 15 21 21 16 11 11 10 12 15 13 13 14 14 15 14 14 14 14 14
5 5 13 11 6 17 16 5 13 17 8 3 -6 -4 6 8 22 35 16 5 23 32 34 35 18 2 9 10 -8 -5 14 14 11 16 11 5 8 9 11 15 9 2 10 17 9 6 12 11 5 2 4 10 12 10 9 4 6 20 20 10 8 5 5 15 17 9 -1 -2 8 13 15 20 19 14 13 11 10 13 14 13 14 15 15 14 15 15 13 10
7 7 13 11 8 15 15 12 19 15 -2 -6 1 2 -2 5 24 30 16 13 27 33 31 27 15 3 7 10 1 -0 11 12 11 19 25 21 16 13 14 15 10 6 10 13 9 5 11 15 7 -1 5 11 11 11 9 4 8 20 23 20 17 10 3 1 9 17 8 -1 5 8 7 13 17 16 16 13 11 12 12 14 15 16 16 15 14 12 9 7
12 10 12 8 6 12 17 18 19 12 -2 -3 7 6 -1 12 31 21 10 24 33 25 21 19 11 6 5 6 7 9 10 2 -3 7 24 29 24 18 17 14 9 8 10 8 6 5 12 19 11 -3 -1 9 13 13 7 1 8 15 18 26 28 20 12 4 -0 7 7 -1 -2 -1 -1 3 7 9 11 12 13 14 14 15 15 14 13 12 10 7 6 7
Height
5727 5727 5727 5728 5728 5729 5730 5731 5732 5733 5735 5736 5738 5739 5740 5742 5744 5745 5747 5749 5751 5753 5755 5757 5759 5760 5762 5764 5766 5767 5770 5771 5773 5775 5777 5778 5780 5782 5783 5785 5787 5789 5791 5792 5794 5795 5797 5799 5801 5803 5805 5807 5809 5810 5812 5813 5815 5816 5818 5820 5821 5824 5826 5827 5828 5830 5828 5822 5828 5836 5837 5838 5840 5841 5842 5842 5844 5844 5844 5845 5845 5846 5846 5845 5845 5846 5847 5849
5722 5722 5723 5723 5724 5724 5725 5726 5727 5728 5729 5730 5732 5733 5735 5736 5738 5740 5741 5743 5745 5748 5750 5751 5753 5755 5757 5759 5761 5763 5765 5766 5769 5771 5773 5774 5776 5778 5780 5782 5784 5786 5788 5789 5791 5792 5794 5796 5797 5800 5802 5804 5806 5807 5809 5811 5812 5813 5815 5817 5819 5821 5822 5822 5822 5822 5821 5821 5828 5834 5835 5836 5838 5839 5841 5841 5842 5842 5843 5842 5843 5843 5842 5842 5842 5844 5846 5848
5718 5718 5718 5719 5719 5719 5720 5721 5721 5722 5724 5725 5726 5728 5729 5730 5732 5734 5736 5738 5740 5742 5744 5746 5748 5750 5752 5754 5756 5758 5760 5762 5765 5766 5768 5771 5772 5775 5777 5779 5781 5783 5785 5786 5788 5790 5791 5793 5794 5797 5799 5801 5803 5804 5806 5808 5809 5811 5812 5814 5815 5817 5818 5816 5817 5819 5819 5822 5828 5832 5833 5835 5836 5838 5840 5840 5840 5841 5841 5841 5841 5840 5840 5840 5841 5843 5845 5847
5713 5713 5713 5714 5714 5715 5715 5716 5717 5717 5718 5719 5721 5722 5723 5725 5726 5728 5730 5732 5735 5737 5739 5741 5743 5745 5747 5749 5751 5753 5755 5757 5759 5761 5765 5767 5768 5771 5774 5776 5778 5780 5781 5783 5785 5787 5788 5790 5792 5794 5796 5798 5800 5801 5803 5804 5806 5808 5809 5811 5813 5814 5813 5814 5816 5817 5818 5823 5827 5830 5831 5832 5834 5837 5838 5839 5840 5840 5840 5840 5841 5839 5838 5838 5839 5842 5844 5845
5707 5707 5708 5708 5708 5709 5710 5711 5712 5712 5713 5714 5715 5717 5718 5719 5721 5723 5725 5727 5729 5732 5734 5736 5738 5739 5741 5744 5746 5748 5751 5751 5753 5758 5760 5761 5763 5767 5770 5772 5774 5776 5778 5780 5782 5784 5786 5788 5789 5791 5793 5795 5797 5798 5800 5801 5804 5805 5806 5808 5809 5810 5811 5811 5813 5814 5817 5822 5824 5827 5827 5829 5832 5834 5836 5837 5838 5838 5838 5839 5839 5837 5836 5837 5838 5840 5842 5843
5701 5701 5702 5702 5703 5703 5704 5705 5706 5707 5708 5709 5710 5711 5713 5714 5716 5718 5720 5722 5724 5727 5729 5731 5732 5734 5736 5739 5740 5743 5745 5745 5748 5754 5755 5756 5759 5763 5766 5768 5770 5773 5775 5777 5779 5781 5783 5785 5787 5788 5790 5792 5794 5796 5797 5798 5801 5801 5803 5806 5805 5807 5809 5808 5809 5812 5816 5819 5821 5823 5824 5827 5830 5831 5833 5834 5833 5834 5835 5837 5837 5835 5835 5836 5837 5838 5840 5841
5695 5695 5695 5696 5696 5697 5698 5699 5700 5701 5702 5703 5705 5706 5707 5709 5711 5712 5714 5717 5719 5722 5724 5726 5727 5729 5731 5733 5735 5738 5740 5741 5744 5749 5751 5752 5755 5759 5762 5765 5767 5769 5771 5773 5775 5778 5780 5782 5784 5785 5787 5789 5791 5793 5795 5795 5797 5799 5801 5802 5803 5806 5806 5805 5807 5811 5814 5816 5818 5820 5823 5826 5828 5828 5830 5830 5831 5832 5834 5835 5834 5834 5834 5835 5835 5837 5839 5839
5690 5689 5689 5689 5690 5691 5691 5692 5693 5694 5696 5697 5698 5700 5702 5703 5705 5707 5709 5711 5714 5716 5718 5720 5722 5724 5726 5729 5731 5733 5736 5738 5739 5742 5746 5748 5751 5754 5757 5760 5763 5765 5768 5770 5772 5774 5776 5778 5780 5782 5784 5786 5788 5790 5792 5792 5795 5796 5798 5800 5801 5803 5802 5803 5806 5808 5811 5814 5816 5819 5822 5823 5824 5826 5827 5828 5830 5832 5832 5833 5832 5832 5833 5834 5835 5836 5837 5838
5684 5684 5683 5683 5683 5684 5685 5685 5686 5687 5689 5690 5691 5693 5695 5697 5699 5701 5703 5705 5708 5710 5713 5715 5716 5719 5721 5723 5725 5728 5732 5733 5733 5737 5742 5744 5747 5749 5752 5755 5758 5761 5763 5766 5768 5770 5772 5775 5778 5780 5782 5784 5785 5787 5788 5789 5792 5794 5795 5797 5799 5799 5799 5801 5803 5806 5809 5812 5814 5817 5818 5819 5821 5824 5825 5826 5828 5829 5830 5831 5831 5831 5832 5834 5834 5834 5835 5837
5677 5677 5677 5677 5677 5677 5678 5679 5679 5680 5681 5683 5684 5686 5688 5690 5692 5694 5696 5699 5701 5704 5706 5708 5710 5712 5715 5718 5720 5723 5727 5727 5727 5733 5737 5739 5742 5745 5747 5750 5754 5757 5760 5762 5764 5767 5769 5772 5775 5777 5779 5780 5781 5783 5785 5786 5788 5790 5792 5794 5796 5796 5797 5798 5801 5804 5806 5808 5811 5814 5815 5817 5820 5822 5822 5824 5826 5827 5828 5828 5830 5831 5831 5832 5832 5832 5833 5835
5670 5670 5670 5670 5670 5670 5671 5672 5672 5673 5674 5676 5677 5679 5680 5682 5684 5686 5689 5692 5695 5697 5699 5702 5703 5706 5709 5711 5715 5718 5720 5722 5723 5728 5731 5734 5738 5740 5742 5746 5750 5753 5756 5758 5760 5763 5766 5768 5771 5772 5774 5776 5778 5780 5782 5784 5786 5787 5790 5792 5793 5794 5794 5796 5799 5801 5803 5806 5809 5811 5813 5814 5818 5820 5819 5821 5823 5824 5826 5826 5828 5829 5829 5830 5829 5830 5832 5834
5663 5663 5662 5662 5662 5663 5663 5664 5665 5666 5667 5668 5670 5671 5673 5674 5676 5679 5681 5684 5687 5689 5692 5695 5696 5699 5702 5705 5710 5712 5714 5717 5719 5723 5727 5729 5733 5735 5738 5741 5745 5749 5752 5754 5757 5759 5762 5764 5766 5768 5771 5774 5776 5778 5779 5782 5783 5785 5788 5789 5790 5792 5792 5794 5797 5799 5802 5804 5806 5809 5811 5812 5816 5817 5816 5819 5821 5822 5824 5825 5826 5827 5828 5828 5827 5829 5831 5832
5656 5656 5655 5655 5655 5655 5656 5656 5657 5658 5660 5661 5662 5664 5665 5667 5669 5671 5673 5676 5679 5682 5684 5686 5689 5692 5695 5700 5705 5705 5707 5711 5715 5719 5722 5724 5728 5731 5734 5737 5740 5744 5747 5750 5753 5755 5757 5760 5762 5765 5768 5770 5773 5774 5775 5778 5780 5783 5786 5787 5788 5789 5789 5792 5795 5797 5801 5801 5804 5808 5809 5811 5814 5813 5814 5818 5819 5820 5822 5824 5825 5825 5826 5826 5826 5828 5829 5831
5649 5648 5648 5648 5647 5648 5648 5649 5650 5651 5652 5653 5655 5656 5658 5659 5661 5663 5665 5668 5671 5674 5676 5679 5682 5684 5688 5695 5698 5697 5701 5706 5710 5714 5717 5719 5723 5726 5729 5732 5735 5739 5743 5746 5748 5750 5753 5755 5759 5762 5764 5767 5770 5770 5772 5776 5778 5780 5783 5785 5786 5787 5787 5790 5792 5795 5797 5799 5802 5806 5809 5811 5810 5810 5813 5816 5817 5818 5820 5822 5823 5823 5824 5824 5825 5826 5827 5829
5642 5641 5641 5640 5640 5641 5641 5642 5643 5644 5645 5647 5648 5649 5650 5652 5654 5656 5657 5660 5663 5665 5668 5671 5674 5677 5682 5687 5689 5691 5695 5700 5705 5708 5711 5714 5718 5721 5724 5728 5731 5735 5738 5742 5744 5746 5748 5751 5756 5758 5760 5765 5766 5765 5770 5774 5775 5778 5781 5782 5783 5785 5786 5787 5790 5793 5795 5797 5800 5806 5811 5811 5806 5807 5812 5813 5815 5817 5817 5819 5820 5821 5822 5823 5823 5824 5825 5827
5635 5634 5634 5634 5634 5634 5635 5636 5637 5638 5639 5640 5641 5642 5643 5645 5646 5648 5650 5652 5654 5657 5660 5663 5666 5670 5674 5679 5682 5685 5689 5694 5699 5701 5704 5709 5712 5716 5719 5723 5726 5730 5733 5737 5739 5741 5744 5749 5752 5754 5757 5761 5762 5764 5770 5772 5772 5776 5778 5780 5781 5784 5786 5784 5786 5791 5793 5795 5799 5805 5810 5807 5803 5806 5809 5810 5812 5814 5815 5817 5818 5819 5820 5820 5821 5822 5823 5825
5629 5628 5627 5627 5628 5628 5629 5629 5631 5632 5632 5633 5634 5636 5637 5638 5639 5641 5643 5644 5647 5649 5652 5655 5659 5663 5667 5671 5675 5679 5683 5688 5692 5695 5700 5704 5707 5711 5714 5718 5722 5725 5729 5732 5734 5737 5741 5745 5747 5750 5754 5757 5758 5762 5767 5768 5770 5773 5775 5778 5779 5783 5786 5782 5782 5788 5792 5793 5797 5803 5805 5802 5801 5804 5805 5807 5810 5812 5813 5815 5816 5817 5818 5818 5819 5820 5821 5823
5622 5622 5621 5621 5621 5622 5623 5623 5624 5625 5626 5627 5628 5629 5630 5631 5632 5634 5635 5637 5639 5642 5644 5648 5652 5657 5660 5663 5668 5672 5676 5681 5685 5689 5695 5698 5701 5705 5709 5714 5718 5721 5724 5726 5730 5733 5737 5740 5743 5746 5749 5752 5755 5759 5762 5764 5768 5770 5773 5776 5777 5781 5784 5780 5780 5786 5790 5791 5795 5800 5801 5798 5799 5802 5803 5805 5807 5809 5811 5813 5814 5815 5816 5817 5817 5817 5820 5821
5616 5615 5615 5615 5615 5616 5617 5617 5618 5618 5619 5620 5621 5622 5623 5624 5625 5627 5628 5629 5632 5635 5637 5640 5644 5649 5651 5654 5660 5665 5669 5674 5679 5684 5688 5692 5696 5700 5705 5709 5712 5716 5719 5722 5726 5729 5732 5736 5738 5740 5744 5749 5752 5756 5760 5763 5765 5768 5771 5775 5776 5779 5782 5779 5779 5783 5788 5790 5793 5798 5798 5796 5797 5800 5801 5803 5805 5807 5809 5811 5812 5813 5814 5815 5815 5816 5817 5819
5609 5609 5608 5608 5609 5610 5610 5611 5611 5612 5613 5613 5615 5615 5616 5617 5618 5619 5620 5622 5625 5627 5629 5631 5637 5641 5643 5647 5652 5657 5663 5668 5673 5677 5682 5686 5690 5695 5699 5703 5706 5711 5714 5717 5722 5725 5728 5730 5732 5738 5743 5746 5750 5753 5757 5761 5763 5766 5769 5773 5774 5776 5780 5780 5778 5780 5786 5789 5791 5795 5796 5794 5796 5798 5800 5802 5803 5805 5806 5808 5810 5811 5812 5813 5813 5814 5815 5817
5602 5602 5602 5602 5602 5603 5604 5604 5604 5605 5606 5607 5608 5608 5609 5610 5611 5612 5614 5616 5617 5619 5622 5625 5630 5634 5636 5639 5645 5651 5657 5661 5665 5670 5675 5680 5684 5688 5693 5698 5701 5705 5709 5713 5717 5720 5723 5726 5730 5737 5740 5742 5746 5749 5754 5758 5760 5762 5765 5769 5771 5775 5779 5779 5775 5777 5782 5786 5790 5793 5792 5791 5794 5796 5798 5800 5801 5802 5804 5806 5807 5809 5809 5810 5811 5811 5812 5815
5595 5595 5595 5595 5595 5596 5597 5597 5598 5598 5599 5600 5601 5601 5602 5604 5604 5606 5607 5609 5611 5613 5615 5618 5623 5627 5630 5634 5640 5646 5650 5654 5659 5664 5669 5674 5678 5683 5688 5693 5697 5701 5706 5709 5711 5714 5718 5722 5728 5733 5735 5738 5742 5745 5751 5754 5755 5758 5762 5767 5769 5772 5776 5774 5772 5776 5780 5785 5791 5791 5788 5789 5792 5793 5795 5797 5798 5799 5801 5803 5805 5806 5807 5807 5808 5809 5810 5812
5588 5588 5587 5588 5588 5589 5590 5590 5591 5592 5592 5593 5594 5595 5596 5597 5598 5599 5601 5602 5605 5607 5610 5613 5617 5621 5624 5629 5635 5640 5644 5648 5653 5658 5664 5669 5673 5678 5683 5688 5693 5697 5701 5704 5707 5711 5715 5720 5726 5728 5731 5734 5737 5742 5748 5749 5751 5756 5760 5765 5767 5770 5773 5770 5768 5774 5779 5783 5787 5786 5785 5788 5790 5791 5792 5793 5794 5796 5798 5801 5802 5804 5804 5804 5805 5807 5808 5809
5581 5581 5581 5581 5581 5582 5583 5583 5584 5585 5586 5587 5588 5589 5590 5591 5592 5593 5595 5597 5599 5601 5604 5607 5610 5614 5619 5623 5628 5633 5637 5642 5648 5653 5659 5664 5669 5674 5679 5684 5689 5692 5696 5701 5704 5709 5714 5719 5722 5724 5727 5730 5734 5739 5743 5744 5749 5754 5758 5762 5766 5770 5772 5766 5766 5773 5776 5780 5782 5782 5784 5787 5787 5788 5790 5790 5791 5793 5795 5798 5799 5801 5802 5802 5803 5805 5806 5807
5574 5574 5574 5574 5575 5575 5576 5577 5579 5580 5581 5582 5583 5584 5585 5586 5587 5588 5589 5591 5594 5596 5599 5601 5605 5609 5613 5617 5621 5627 5631 5636 5642 5647 5653 5659 5664 5670 5674 5679 5684 5688 5693 5698 5701 5706 5711 5715 5718 5721 5724 5727 5731 5736 5738 5741 5747 5752 5754 5758 5764 5769 5768 5763 5765 5770 5772 5775 5778 5779 5781 5783 5784 5786 5787 5787 5789 5791 5792 5794 5796 5798 5799 5800 5801 5803 5804 5805
5568 5568 5568 5568 5569 5569 5570 5573 5574 5575 5576 5578 5579 5580 5581 5582 5583 5584 5585 5587 5590 5592 5594 5596 5600 5605 5608 5611 5617 5622 5626 5632 5637 5641 5647 5653 5659 5665 5669 5674 5680 5684 5690 5694 5697 5702 5707 5710 5713 5717 5721 5724 5728 5732 5735 5740 5745 5748 5751 5755 5761 5766 5766 5763 5763 5765 5768 5772 5774 5776 5779 5781 5782 5783 5784 5786 5787 5788 5789 5792 5793 5795 5796 5797 5799 5801 5802 5804
5561 5561 5562 5562 5563 5564 5566 5569 5570 5571 5573 5574 5575 5576 5577 5579 5579 5581 5583 5585 5587 5589 5590 5592 5596 5600 5604 5608 5613 5618 5623 5629 5633 5636 5642 5648 5654 5659 5664 5670 5676 5681 5686 5689 5692 5697 5702 5705 5709 5713 5717 5720 5725 5729 5732 5737 5742 5745 5748 5752 5757 5762 5764 5762 5760 5762 5767 5771 5772 5773 5777 5780 5779 5780 5782 5783 5785 5786 5787 5789 5791 5792 5793 5795 5797 5799 5800 5802
5555 5555 5556 5557 5558 5559 5562 5565 5566 5568 5570 5571 5572 5573 5575 5576 5577 5578 5581 5583 5585 5587 5589 5590 5592 5596 5599 5603 5608 5615 5621 5626 5628 5632 5639 5645 5650 5654 5660 5666 5673 5679 5681 5684 5688 5694 5698 5702 5704 5707 5711 5716 5722 5727 5730 5734 5740 5743 5746 5748 5753 5758 5761 5759 5758 5762 5766 5769 5769 5770 5775 5778 5776 5777 5779 5780 5782 5783 5784 5786 5788 5789 5791 5793 5795 5797 5798 5800
5548 5550 5551 5552 5553 5555 5558 5561 5564 5566 5568 5569 5570 5571 5572 5574 5575 5577 5579 5581 5584 5587 5588 5589 5590 5593 5595 5599 5605 5611 5616 5621 5625 5630 5636 5641 5646 5651 5657 5664 5670 5676 5679 5681 5686 5690 5694 5699 5701 5703 5709 5715 5720 5724 5726 5731 5737 5742 5743 5745 5750 5755 5756 5756 5757 5762 5765 5766 5767 5767 5771 5774 5773 5773 5776 5777 5779 5780 5781 5783 5785 5787 5790 5791 5793 5795 5796 5798
5543 5544 5545 5547 5549 5552 5555 5558 5561 5563 5565 5566 5568 5569 5571 5572 5574 5576 5577 5579 5582 5585 5585 5587 5588 5590 5592 5596 5602 5607 5611 5616 5621 5626 5633 5638 5643 5648 5654 5662 5667 5673 5677 5678 5682 5688 5691 5695 5695 5699 5707 5713 5716 5720 5723 5728 5735 5740 5741 5742 5746 5750 5752 5754 5757 5761 5763 5762 5763 5765 5768 5771 5771 5771 5773 5774 5775 5777 5778 5781 5783 5785 5787 5789 5791 5793 5794 5796
5537 5538 5540 5543 5546 5549 5552 5555 5558 5561 5562 5564 5566 5568 5569 5571 5573 5574 5576 5577 5580 5582 5583 5585 5587 5588 5591 5594 5599 5604 5608 5613 5617 5621 5628 5634 5639 5644 5650 5657 5662 5669 5673 5674 5678 5685 5687 5688 5691 5696 5704 5709 5713 5717 5720 5725 5731 5736 5737 5739 5743 5746 5748 5752 5755 5758 5759 5759 5760 5763 5766 5769 5769 5768 5770 5770 5771 5774 5776 5779 5781 5783 5785 5787 5789 5791 5793 5794
5531 5533 5536 5539 5543 5546 5549 5552 5555 5558 5560 5562 5564 5566 5568 5570 5571 5572 5574 5577 5578 5579 5581 5584 5586 5588 5591 5593 5598 5602 5605 5610 5614 5618 5625 5629 5634 5639 5645 5652 5657 5661 5665 5669 5675 5681 5682 5685 5689 5694 5701 5704 5709 5714 5717 5722 5727 5730 5731 5735 5739 5742 5743 5746 5749 5752 5755 5756 5759 5761 5764 5767 5768 5766 5765 5766 5768 5771 5773 5776 5779 5781 5784 5786 5787 5789 5791 5792
5526 5529 5532 5536 5540 5543 5546 5550 5552 5555 5558 5560 5563 5565 5566 5568 5569 5572 5574 5575 5576 5578 5580 5582 5584 5587 5590 5593 5596 5600 5605 5611 5614 5616 5622 5627 5631 5637 5643 5651 5655 5658 5662 5668 5672 5676 5679 5682 5685 5690 5696 5700 5705 5711 5713 5717 5722 5724 5727 5731 5734 5737 5738 5741 5744 5747 5751 5754 5757 5761 5764 5765 5763 5760 5760 5762 5765 5768 5772 5775 5777 5779 5781 5783 5785 5787 5789 5790
5521 5525 5529 5533 5537 5540 5543 5547 5550 5553 5556 5558 5561 5563 5564 5565 5568 5571 5573 5573 5574 5577 5578 5580 5582 5585 5589 5593 5596 5599 5604 5611 5612 5615 5620 5624 5629 5635 5641 5647 5652 5657 5664 5667 5670 5673 5676 5678 5681 5686 5692 5697 5703 5708 5711 5716 5718 5719 5725 5730 5733 5735 5736 5738 5742 5745 5749 5752 5755 5760 5762 5760 5757 5754 5757 5761 5764 5767 5771 5772 5774 5776 5779 5781 5783 5785 5786 5788
5518 5522 5526 5530 5534 5538 5541 5544 5547 5550 5553 5556 5558 5560 5562 5565 5568 5570 5571 5572 5574 5576 5577 5579 5581 5583 5588 5592 5596 5598 5603 5608 5611 5615 5619 5622 5626 5632 5637 5642 5648 5655 5661 5663 5667 5672 5674 5677 5681 5686 5690 5695 5700 5704 5708 5713 5715 5717 5723 5727 5730 5734 5735 5737 5742 5745 5748 5750 5752 5755 5754 5752 5752 5753 5756 5760 5762 5765 5768 5769 5771 5774 5777 5779 5781 5783 5784 5786
5516 5520 5524 5528 5531 5535 5538 5541 5545 5548 5551 5554 5556 5558 5561 5564 5566 5568 5569 5570 5572 5574 5576 5578 5581 5583 5586 5591 5595 5598 5603 5607 5611 5616 5618 5622 5626 5630 5636 5642 5647 5652 5657 5662 5665 5668 5672 5677 5681 5684 5688 5693 5696 5701 5705 5708 5711 5715 5719 5722 5728 5733 5736 5737 5740 5743 5745 5746 5748 5749 5748 5748 5749 5750 5753 5756 5758 5762 5764 5766 5769 5772 5774 5777 5779 5781 5782 5783
5514 5518 5522 5525 5529 5533 5535 5538 5542 5545 5549 5552 5554 5557 5560 5563 5565 5566 5567 5570 5571 5573 5575 5578 5581 5584 5586 5590 5594 5597 5602 5606 5610 5615 5617 5621 5626 5630 5635 5641 5645 5650 5655 5661 5664 5667 5673 5678 5679 5681 5686 5690 5693 5698 5703 5705 5708 5712 5716 5721 5727 5731 5734 5736 5738 5740 5742 5743 5744 5745 5745 5746 5747 5748 5751 5754 5755 5758 5761 5764 5767 5769 5772 5775 5777 5779 5780 5781
5513 5516 5520 5524 5527 5530 5532 5535 5539 5543 5547 5550 5553 5556 5559 5561 5563 5564 5566 5569 5570 5572 5574 5576 5580 5583 5586 5590 5594 5598 5601 5603 5607 5613 5617 5621 5625 5630 5635 5640 5644 5649 5654 5658 5662 5667 5673 5677 5676 5677 5683 5687 5689 5694 5699 5702 5705 5711 5715 5720 5724 5728 5730 5732 5733 5735 5738 5739 5740 5742 5743 5744 5746 5748 5750 5752 5754 5757 5759 5762 5765 5767 5770 5773 5775 5776 5777 5779
5511 5515 5519 5522 5525 5528 5530 5533 5537 5541 5545 5548 5552 5555 5557 5560 5562 5563 5565 5568 5569 5571 5573 5576 5579 5582 5586 5590 5595 5599 5601 5603 5607 5612 5616 5620 5625 5629 5634 5638 5642 5647 5652 5656 5660 5665 5670 5673 5673 5675 5680 5684 5685 5688 5694 5697 5701 5707 5713 5717 5720 5725 5728 5729 5730 5732 5735 5736 5737 5740 5742 5743 5744 5746 5748 5751 5753 5756 5758 5760 5763 5766 5768 5770 5772 5774 5775 5776
5510 5514 5518 5521 5523 5526 5529 5532 5536 5540 5544 5548 5552 5554 5556 5559 5561 5562 5564 5566 5569 5571 5573 5576 5578 5581 5585 5589 5594 5599 5602 5604 5608 5612 5616 5620 5624 5628 5632 5637 5640 5645 5651 5655 5658 5662 5667 5670 5671 5674 5677 5679 5681 5685 5691 5694 5698 5703 5708 5712 5716 5720 5724 5728 5728 5730 5733 5735 5736 5738 5740 5741 5741 5742 5744 5747 5750 5753 5755 5758 5761 5764 5766 5768 5770 5772 5773 5774
5509 5513 5517 5520 5522 5525 5528 5532 5536 5540 5544 5548 5551 5553 5555 5558 5560 5562 5564 5566 5568 5571 5573 5575 5578 5581 5583 5586 5591 5597 5601 5604 5607 5611 5615 5618 5622 5626 5630 5634 5639 5644 5648 5653 5657 5660 5664 5667 5669 5671 5673 5676 5680 5686 5691 5694 5697 5700 5704 5709 5713 5717 5720 5723 5725 5727 5731 5733 5734 5735 5737 5739 5739 5738 5740 5743 5746 5750 5752 5756 5759 5761 5764 5766 5768 5769 5770 5771
5509 5513 5517 5520 5522 5525 5528 5532 5536 5540 5544 5547 5550 5553 5555 5557 5559 5562 5563 5565 5568 5570 5572 5575 5578 5581 5583 5586 5590 5595 5600 5604 5607 5610 5613 5618 5622 5625 5629 5633 5638 5643 5647 5651 5655 5659 5662 5665 5668 5671 5674 5676 5681 5686 5690 5694 5697 5698 5701 5707 5712 5715 5717 5719 5722 5725 5728 5731 5733 5734 5733 5734 5736 5738 5739 5742 5745 5748 5751 5754 5757 5759 5761 5764 5765 5766 5767 5769
5510 5514 5517 5520 5522 5525 5528 5532 5536 5540 5544 5547 5550 5552 5555 5558 5560 5561 5563 5565 5567 5570 5572 5575 5578 5581 5584 5587 5591 5595 5600 5604 5608 5610 5613 5617 5622 5625 5629 5633 5637 5641 5645 5649 5653 5657 5660 5663 5667 5671 5675 5678 5682 5685 5688 5692 5695 5696 5700 5705 5709 5712 5714 5717 5722 5725 5726 5728 5731 5732 5729 5730 5733 5736 5737 5740 5742 5746 5749 5752 5754 5757 5759 5761 5762 5764 5765 5766
5511 5514 5517 5520 5523 5526 5529 5533 5537 5541 5545 5548 5550 5553 5555 5557 5559 5560 5562 5564 5567 5570 5573 5575 5578 5581 5584 5587 5590 5595 5600 5603 5606 5609 5613 5616 5620 5624 5629 5632 5636 5640 5644 5648 5652 5655 5658 5661 5665 5668 5671 5674 5677 5680 5683 5687 5691 5694 5697 5700 5704 5709 5712 5715 5720 5723 5723 5725 5728 5728 5726 5727 5730 5732 5734 5738 5740 5743 5747 5749 5752 5754 5756 5758 5759 5761 5762 5763
5512 5515 5518 5521 5524 5528 5531 5534 5538 5542 5545 5548 5551 5553 5555 5557 5558 5560 5562 5565 5567 5570 5573 5576 5578 5580 5584 5587 5590 5593 5599 5603 5605 5609 5612 5615 5619 5624 5628 5631 5635 5640 5643 5647 5650 5654 5658 5661 5663 5666 5668 5670 5671 5674 5678 5683 5688 5692 5695 5698 5702 5706 5709 5712 5716 5718 5718 5721 5725 5725 5724 5726 5728 5730 5733 5736 5739 5742 5744 5747 5749 5751 5753 5755 5756 5758 5759 5759
5512 5516 5519 5523 5526 5529 5532 5536 5539 5543 5546 5549 5551 5553 5555 5557 5559 5560 5562 5565 5568 5570 5573 5575 5578 5581 5584 5589 5591 5593 5597 5602 5606 5608 5611 5614 5618 5623 5626 5630 5635 5639 5642 5645 5648 5652 5655 5658 5661 5663 5667 5670 5673 5677 5680 5683 5686 5689 5693 5696 5700 5704 5708 5710 5714 5716 5717 5720 5722 5722 5722 5723 5725 5728 5731 5735 5737 5740 5742 5744 5746 5748 5750 5752 5753 5754 5755 5756
5513 5517 5521 5525 5528 5531 5533 5536 5539 5543 5546 5549 5551 5554 5556 5558 5559 5560 5562 5564 5567 5569 5572 5575 5578 5582 5585 5589 5593 5595 5597 5602 5605 5608 5611 5614 5617 5621 5625 5630 5634 5636 5640 5644 5647 5651 5653 5655 5659 5662 5664 5668 5674 5678 5680 5682 5685 5688 5691 5695 5698 5702 5706 5709 5712 5714 5715 5717 5718 5718 5719 5721 5723 5726 5729 5732 5735 5737 5739 5741 5743 5745 5747 5749 5750 5751 5751 5752
5514 5519 5523 5527 5530 5533 5535 5537 5540 5543 5546 5548 5552 5555 5557 5558 5560 5560 5561 5562 5565 5568 5571 5575 5578 5582 5586 5589 5593 5596 5598 5601 5604 5607 5610 5613 5616 5620 5624 5628 5631 5635 5639 5642 5646 5649 5652 5655 5658 5660 5662 5665 5669 5673 5677 5681 5685 5688 5690 5693 5696 5699 5703 5706 5708 5710 5711 5713 5713 5714 5716 5719 5721 5723 5727 5730 5732 5734 5737 5739 5740 5742 5744 5745 5746 5747 5748 5748
5516 5520 5524 5529 5532 5535 5537 5539 5542 5544 5547 5550 5553 5555 5557 5559 5560 5560 5560 5561 5563 5567 5570 5573 5577 5582 5586 5590 5593 5597 5599 5602 5605 5607 5610 5613 5616 5619 5623 5626 5630 5635 5639 5642 5645 5648 5650 5653 5657 5659 5662 5664 5667 5671 5676 5680 5683 5685 5688 5690 5693 5696 5700 5702 5703 5705 5707 5708 5709 5712 5714 5716 5718 5721 5724 5727 5729 5731 5733 5735 5737 5738 5740 5741 5742 5743 5744 5744
5518 5521 5525 5529 5533 5536 5539 5541 5543 5545 5548 5551 5554 5556 5558 5559 5560 5560 5560 5560 5563 5566 5569 5573 5577 5581 5585 5589 5593 5597 5600 5603 5606 5608 5610 5612 5615 5618 5622 5626 5630 5633 5637 5640 5644 5646 5649 5652 5655 5658 5661 5664 5667 5670 5673 5676 5678 5681 5684 5686 5689 5692 5695 5697 5699 5701 5704 5706 5708 5710 5712 5714 5716 5719 5722 5724 5726 5728 5730 5731 5733 5735 5736 5737 5739 5740 5741 5741
5519 5522 5526 5530 5534 5537 5540 5542 5545 5548 5550 5553 5555 5557 5559 5560 5560 5559 5560 5560 5563 5565 5569 5573 5577 5581 5586 5589 5592 5596 5599 5603 5607 5609 5611 5613 5616 5619 5623 5627 5630 5633 5636 5639 5642 5645 5648 5651 5654 5657 5660 5663 5666 5668 5671 5674 5677 5679 5681 5683 5685 5688 5691 5694 5697 5700 5702 5705 5707 5709 5711 5713 5715 5717 5719 5722 5723 5725 5727 5729 5730 5732 5733 5734 5735 5737 5738 5738
5521 5524 5528 5531 5535 5539 5543 5545 5547 5550 5553 5555 5557 5558 5560 5560 5560 5559 5560 5561 5564 5566 5569 5573 5577 5582 5586 5588 5592 5596 5600 5603 5606 5609 5611 5613 5616 5620 5623 5627 5630 5634 5636 5639 5642 5645 5647 5650 5653 5656 5659 5662 5665 5667 5670 5674 5676 5677 5679 5682 5685 5687 5690 5693 5695 5698 5701 5703 5705 5708 5710 5713 5714 5716 5718 5720 5721 5723 5725 5726 5727 5729 5730 5731 5733 5734 5735 5736